Regional Weather Roundup
Issued by NWS Sioux Falls, SD

Home | Current Version | Previous Version | Graphics & Text | Print | Product List | Glossary On
Versions: 1 2 3 4 5 6 7 8 9 10 11 12 13 14 15 16 17 18 19 20 21 22 23 24 25 26 27 28 29 30 31 32 33 34 35 36 37 38 39 40 41 42 43 44 45 46 47 48 49 50
000
ASUS43 KFSD 051002
RWRFSD

WEATHER ROUNDUP FOR SE SOUTH DAKOTA/SW MINNESOTA/NW IOWA
NATIONAL WEATHER SERVICE SIOUX FALLS SD
400 AM CST MON DEC 05 2016

NOTE: "FAIR" INDICATES FEW OR NO CLOUDS BELOW 12,000 FEET WITH NO
SIGNIFICANT WEATHER AND OR OBSTRUCTIONS TO VISIBILITY.


SDZ038>040-050-052>070-051100-
SOUTHEAST SOUTH DAKOTA

CITY           SKY/WX    TMP DP  RH WIND       PRES   REMARKS
CHAMBERLAIN    CLOUDY    31  29  89 SE6       29.56F WCI  26
HURON          CLOUDY    32  28  85 SE7       29.60F WCI  26
MADISON        PTSUNNY   32  32 100 SE8       29.65F WCI  25
MITCHELL       CLOUDY    32  27  81 SE9       29.62F WCI  24
SIOUX FALLS    CLOUDY    35  30  82 SE9       29.66F WCI  28
WINNER         FAIR      37  21  52 SW15      29.54F
YANKTON        CLOUDY    36  25  64 S10       29.65F
$$

MNZ071-072-080-081-089-090-097-098-051100-
SOUTHWEST MINNESOTA

CITY           SKY/WX    TMP DP  RH WIND       PRES   REMARKS
FAIRMONT       CLOUDY    31  30  96 S8        29.79F WCI  23
JACKSON        CLOUDY    32  30  93 S12       29.76F WCI  23
LUVERNE        CLOUDY    32  30  93 SE8       29.71F WCI  25
MARSHALL       CLOUDY    33  29  85 SE8       29.71F WCI  26
MONTEVIDEO     PTCLDY    27  27 100 SE5       29.73F WCI  21
PIPESTONE      CLOUDY    34  30  86 SE10      29.68F WCI  26
REDWOOD FALLS  CLOUDY    31  27  85 SE6       29.74F WCI  25
TRACY          CLOUDY    36  32  84 S14       29.71F
WINDOM         CLOUDY    34  32  93 CALM      29.74F
WORTHINGTON    CLOUDY    32  30  92 S10       29.73F WCI  24
$$

IAZ001>003-012>014-020>022-031-032-NEZ013-014-SDZ071-051100-
NORTHWEST IOWA

CITY           SKY/WX    TMP DP  RH WIND       PRES   REMARKS
CHEROKEE       PTCLDY    31  30  97 S7        29.77F WCI  24
DENISON        CLEAR     32  30  93 S9G15     29.79F WCI  24
ESTHERVILLE    CLOUDY    31  31 100 S10       29.77F WCI  22
LE MARS        CLOUDY    34  30  86 SE10G16   29.74F WCI  26
ORANGE CITY    CLOUDY    32  28  86 S5        29.72F WCI  27
SHELDON        CLOUDY    32  32 100 S13       29.72F WCI  22
SIOUX CITY     CLOUDY    32  29  88 SE12      29.74F WCI  23
SPENCER        CLOUDY    33  31  92 S15       29.76F WCI  23
STORM LAKE     PTCLDY    30  28  93 S15       29.78F WCI  19
$$

ABBREVIATIONS USED IN REMARKS
   TC - TEMPERATURE IN CELSIUS
  WCI - WIND CHILL INDEX
   HX - HEAT INDEX
  VSB - VISIBILITY





USA.gov is the U.S. government's official web portal to all federal, state and local government web resources and services.